FW8758 Weather Reports


time (UTC)temp
F
wind
direction
speed
knots
gust
knots
rain 1hr
in
rain 24hr
in
rain mn
in
humidity
%
barometer
mb
20260506033032 56 246 4.3 8.7 0.00 0.16 0.16 55 1005.9
20260506031547 56 256 3.5 8.7 0.00 0.16 0.16 57 1005.7
20260506030036 56 228 3.5 7.8 0.00 0.16 0.16 59 1005.8
20260506024536 57 242 4.3 10.4 0.00 0.16 0.16 59 1005.4
20260506023035 57 291 5.2 13.9 0.00 0.16 0.16 60 1005.0
20260506021533 58 273 5.2 9.6 0.00 0.16 0.16 63 1005.0
20260506020035 58 248 3.5 9.6 0.00 0.16 0.16 64 1004.7
20260506014536 58 205 2.6 8.7 0.00 0.16 0.16 63 1004.7
20260506013035 59 290 3.5 12.2 0.00 0.16 0.16 61 1004.3
20260506011534 59 257 6.1 12.2 0.00 0.16 0.16 60 1004.0
20260506010049 59 244 4.3 13.0 0.00 0.16 0.16 61 1003.7
20260506004535 60 219 3.5 9.6 0.00 0.16 0.16 62 1003.2
20260506003036 60 244 3.5 10.4 0.00 0.16 0.16 64 1003.1
20260506001535 60 275 3.5 9.6 0.00 0.16 0.16 64 1003.2
20260506000034 61 265 2.6 13.0 0.00 0.16 0.16 64 1003.2
20260505234535 61 261 2.6 7.0 0.00 0.16 0.16 63 1002.7
20260505233045 61 235 2.6 8.7 0.00 0.16 0.16 62 1002.5
20260505231536 62 212 4.3 7.8 0.00 0.16 0.16 62 1002.0
20260505230040 62 217 4.3 13.0 0.00 0.16 0.16 61 1002.1
20260505224541 62 268 7.8 14.8 0.00 0.16 0.16 61 1001.8
20260505223032 62 249 4.3 11.3 0.00 0.16 0.16 60 1001.3
20260505221530 62 277 4.3 12.2 0.00 0.16 0.16 66 1001.2
20260505220036 62 262 2.6 7.8 0.00 0.16 0.16 72 1000.9
20260505214534 62 247 1.7 7.8 0.00 0.16 0.16 74 1000.7
20260505213031 62 246 2.6 7.0 0.00 0.16 0.16 75 1000.7
20260505211536 62 248 3.5 10.4 0.04 0.16 0.16 76 1000.2
20260505210036 62 279 2.6 9.6 0.04 0.16 0.16 77 999.9
20260505204535 62 301 2.6 8.7 0.04 0.16 0.16 78 999.6
20260505203037 63 273 2.6 16.5 0.03 0.15 0.15 73 999.6
20260505201548 68 255 7.0 24.3 0.00 0.11 0.11 58 999.3
20260505200037 70 209 11.3 28.7 0.00 0.11 0.11 56 998.1
20260505194536 70 238 9.6 25.2 0.00 0.11 0.11 56 998.1
20260505193035 71 195 7.0 18.2 0.00 0.11 0.11 56 997.7
20260505191533 71 169 8.7 16.5 0.00 0.11 0.11 58 997.9
20260505190036 69 183 6.1 17.4 0.00 0.11 0.11 61 998.1
20260505184532 69 223 7.0 15.6 0.00 0.11 0.11 62 998.2
20260505183053 70 218 7.0 15.6 0.00 0.11 0.11 57 998.2
20260505181535 69 206 6.1 14.8 0.00 0.11 0.11 60 998.4
20260505180035 68 155 4.3 17.4 0.00 0.11 0.11 63 998.6
20260505174532 66 218 2.6 9.6 0.00 0.11 0.11 70 998.8
20260505173040 63 192 2.6 7.0 0.00 0.11 0.11 76 998.9
20260505171544 61 271 1.7 5.2 0.00 0.11 0.11 81 999.0
20260505170037 58 235 0.0 1.7 0.00 0.11 0.11 85 999.4
20260505164531 57 202 0.9 3.5 0.02 0.11 0.11 84 999.9
20260505163030 56 259 1.7 4.3 0.03 0.11 0.11 84 1000.2
20260505161536 56 258 0.0 2.6 0.11 0.11 0.11 86 1000.2
20260505153036 57 130 0.9 6.1 0.07 0.07 0.07 80 1000.5
20260505151537 60 213 5.2 13.0 0.00 0.00 0.00 73 1001.1
20260505124539 58 240 2.6 7.0 0.00 0.23 0.00 64 1000.8
20260505123035 52 220 1.7 5.2 0.00 0.23 0.00 75 1000.8
20260505121537 49 0 0.0 0.0 0.00 0.23 0.00 83 1000.8
20260505120056 47 0 0.0 0.0 0.00 0.23 0.00 85 1001.0
20260505114537 45 0 0.0 0.0 0.00 0.26 0.00 86 1001.0
20260505113040 44 0 0.0 0.0 0.00 0.26 0.00 88 1001.3
20260505111531 43 0 0.0 0.0 0.00 0.26 0.00 90 1001.3
20260505101537 40 0 0.0 0.0 0.00 0.26 0.00 90 1001.2
20260505100030 40 0 0.0 0.0 0.00 0.26 0.00 89 1001.2
20260505094536 40 0 0.0 0.0 0.00 0.26 0.00 89 1001.3
20260505093040 40 0 0.0 0.0 0.00 0.26 0.00 89 1001.5
20260505091530 40 0 0.0 0.9 0.00 0.26 0.00 88 1001.3
20260505090043 41 0 0.0 1.7 0.00 0.26 0.00 88 1001.5
20260505084536 41 0 0.0 1.7 0.00 0.26 0.00 87 1001.5
20260505083034 42 0 0.9 1.7 0.00 0.26 0.00 88 1001.5
20260505081539 42 0 0.0 1.7 0.00 0.26 0.00 87 1001.8
20260505080038 42 80 0.0 1.7 0.00 0.26 0.00 87 1001.7
20260505074536 42 36 0.9 1.7 0.00 0.26 0.00 87 1001.8
20260505073052 42 63 0.0 1.7 0.00 0.26 0.00 86 1001.8
20260505071530 43 0 0.0 1.7 0.00 0.26 0.00 86 1001.9
20260505070034 43 0 0.0 1.7 0.00 0.26 0.00 86 1001.9
20260505064542 44 67 0.0 2.6 0.00 0.26 0.00 85 1002.1
20260505063037 44 39 1.7 2.6 0.00 0.26 0.00 85 1002.2
20260505061547 44 360 0.0 1.7 0.00 0.26 0.00 85 1002.2
20260505060035 44 67 0.9 3.5 0.00 0.26 0.00 85 1002.4
20260505054558 44 49 0.9 1.7 0.00 0.26 0.00 84 1002.5
20260505053036 45 18 0.0 3.5 0.00 0.26 0.00 84 1002.6
20260505051534 45 84 1.7 3.5 0.00 0.26 0.00 83 1002.7
20260505041534 47 61 0.9 2.6 0.00 0.26 0.00 83 1003.3
20260505040035 47 78 1.7 4.3 0.00 0.26 0.00 82 1003.2
20260505034530 48 71 1.7 3.5 0.00 0.26 0.26 81 1003.4